Tracking 31027 objects as of 19-Jul-2025
HD Live streaming from Space Station
objects crossing your sky now

COSMOS 1275 DEB

Track COSMOS 1275 DEB now!
10-day predictions


NORAD ID: 42102
Int'l Code: 1981-053PN
Perigee: 886.1 km
Apogee: 997.8 km
Inclination: 83.0 °
Period: 103.7 minutes
Semi major axis: 7312 km
RCS: Unknown
Launch date: June 4, 1981
Source: Commonwealth of Independent States (former USSR) (CIS)
Launch site: PLESETSK MISSILE AND SPACE COMPLEX (PKMTR)

Note: This is SATELLITE DEBRIS
Your satellite tracking list
COSMOS 2251 DEB
Track 1 satellite(s)




NASA's NSSDC Master Catalog

Two Line Element Set (TLE):
1 42102U 81053PN  25198.73381872  .00001797  00000-0  14563-2 0  9995
2 42102  83.0116 304.0847 0076406 139.3500 221.3403 13.88236231588171
Source of the keplerian elements: AFSPC